Location: Shandelee
(41.8790°N, 74.8713°W)
Time: 04:11:47
(UTC+00:00)

SMAP - Pass Details

Date: 29 October 2020
Orbit: 681 x 683 km, 98.1° (Epoch: 23 November)

Event Time Altitude Azimuth Distance (km) Brightness Sun altitude
Rises 22:54:44 0° 183° (S) 3,030 6.6 -11.3°
Reaches altitude 10° 22:57:04 10° 190° (S) 2,119 5.8 -11.7°
Maximum altitude 23:01:27 42° 262° (W) 977 4.5 -12.6°
Drops below altitude 10° 23:05:53 10° 333° (NNW) 2,134 5.9 -13.4°
Sets 23:08:14 0° 340° (NNW) 3,054 6.6 -13.8°
